Content
SEND FEEDBACK

Daily
Averages
Monthly
Summary
United States of America

CRESCENT CITY, CALIFORNIA


Home > North America > United States > California
Elevation: 56 feet     Latitude: 41 46N     Longitude: 124 14W

WEATHER
 
SELECT A DAY
Number of Records: 274,079;   Date Range: 1/1/95 - 10/29/14
 
SHARE

PRINT THIS DATA

[ ← Previous Day ]
WEATHER ALMANAC - AUGUST 18, 2013
[ Next Day → ]
[ °C ]   °F
Weather ElementAverageHighLow
Temperature59.3 °F66 °F (12:56 pm)55 °F (11:56 pm)
Dewpoint56.2 °F57.9 °F (10:56 am)53.1 °F (8:56 pm)
Humidity90 %100 % (4:04 am)70 % (1:56 pm)
Barometer29.98 in30.03 in (1:43 am)29.89 in (6:56 pm)
Wind Speed6.6 mph19.6 mph (12:56 pm)
Wind Gust28.8 mph (3:56 pm)
Weather ElementAverage
Visibility4.9 mi
Wind DirectionSSE (159.1 °)

Weather ElementTotal
Precipitation---
Heating Degree Days4.5 (Base 65)
Growing Degree Days10.5 (Base 50)
Averaged from 35 records on August 18, 2013
WEATHER CONDITIONS BREAKOUT
WIND DIRECTION BREAKOUT
WEATHER BY HOUR - AUGUST 18, 2013
[ °C ]   °F
Local TimeTemperatureDewpointHumidityBarometerVisibilityWind DirectionWind SpeedGust SpeedPrecipitationEventsConditions
1:43 AM59.0 °F57.2 °F94 %30.03 in9.0 miCalmOvercast
1:56 AM59.0 °F57.0 °F93 %30.02 in9.0 miCalmOvercast
2:56 AM59.0 °F57.0 °F93 %30.01 in6.0 miCalmOvercast
3:56 AM57.9 °F57.0 °F97 %30.01 in3.0 miCalmOvercast
4:04 AM57.2 °F57.2 °F100 %30.01 in2.0 miCalmOvercast
4:11 AM57.2 °F57.2 °F100 %30.01 in1.5 miCalmOvercast
4:18 AM57.2 °F57.2 °F100 %30.01 in1.0 miCalmOvercast
4:28 AM57.2 °F57.2 °F100 %30.00 in0.8 miCalmMist
4:43 AM57.2 °F57.2 °F100 %30.00 in1.0 miCalmMist
4:56 AM57.0 °F57.0 °F100 %30.00 in0.8 miNorth (350°)3.5 mphMist
5:56 AM57.0 °F57.0 °F100 %30.00 in0.5 miCalmFogFog
6:56 AM57.0 °F57.0 °F100 %30.00 in0.2 miCalmFogFog
7:56 AM57.0 °F57.0 °F100 %30.01 in0.2 miCalmFogFog
8:56 AM57.0 °F57.0 °F100 %30.01 in0.5 miCalmFogFog
9:31 AM57.2 °F57.2 °F100 %30.01 in1.8 miCalmOvercast
9:43 AM57.2 °F57.2 °F100 %30.01 in0.8 miSSW (200°)3.5 mphOvercast
9:56 AM57.9 °F57.0 °F97 %30.01 in0.5 miWSW (250°)5.8 mphFogFog
10:20 AM57.2 °F57.2 °F100 %30.00 in1.8 miCalmOvercast
10:22 AM57.2 °F57.2 °F100 %30.00 in4.0 miCalmOvercast
10:56 AM62.1 °F57.9 °F86 %30.00 in10.0 miSouth (180°)8.1 mphPartly Cloudy
11:12 AM60.8 °F57.2 °F88 %30.00 in3.0 miSouth (180°)6.9 mphMostly Cloudy
11:36 AM62.6 °F57.2 °F82 %30.00 in10.0 miSouth (170°)6.9 mphScattered Clouds
11:56 AM63.0 °F57.0 °F81 %29.99 in10.0 miSouth (180°)6.9 mphClear
12:56 PM66.0 °F57.0 °F73 %29.98 in9.0 miNNW (330°)19.6 mph26.5 mphClear
1:56 PM66.0 °F55.9 °F70 %29.97 in9.0 miNNW (330°)19.6 mph27.6 mphClear
2:56 PM66.0 °F55.9 °F70 %29.96 in8.0 miNNW (330°)18.4 mph27.6 mphClear
3:56 PM64.9 °F55.0 °F70 %29.94 in8.0 miNNW (340°)19.6 mph28.8 mphClear
4:56 PM63.0 °F54.0 °F72 %29.92 in7.0 miNorth (350°)19.6 mph28.8 mphClear
5:56 PM63.0 °F54.0 °F72 %29.90 in8.0 miNorth (350°)15.0 mph25.3 mphClear
6:56 PM61.0 °F54.0 °F78 %29.89 in9.0 miNNW (340°)16.1 mph26.5 mphClear
7:56 PM59.0 °F54.0 °F83 %29.90 in7.0 miNNW (340°)16.1 mph24.2 mphScattered Clouds
8:56 PM59.0 °F53.1 °F81 %29.91 in9.0 miNNW (340°)16.1 mph25.3 mphOvercast
9:56 PM57.0 °F53.1 °F87 %29.93 in7.0 miNNW (340°)9.2 mphClear
10:56 PM55.9 °F53.1 °F90 %29.93 in8.0 miNNW (340°)11.5 mph20.7 mphClear
11:56 PM55.0 °F53.1 °F93 %29.93 in6.0 miNNW (330°)6.9 mphPartly Cloudy
Hourly data recorded from KCEC, located miles away from Crescent City, California







STORIES FROM OUR PARTNERS